PBO Station Position Time Series. Reference Frame : NAM14
Format Version,1.1.0
4-character ID,P240
Station name,MillerSlghCN2005
Begin Date, 2005-05-27
End Date, 2021-05-08
Release Date, 2021-11-04
Reference position, 37.0078070500 North Latitude, -121.5420341392 East Longitude, 25.74477 meters elevation,
Date, North (mm), East (mm), Vertical (mm), North Std. Deviation (mm), East Std. Deviation (mm),              Vertical Std. Deviation (mm), Quality,
2005-05-27,0.00, 0.00, 0.00, 2.09, 1.66, 7.54, repro,
2005-05-28,0.15, -0.36, -2.52, 2.08, 1.68, 7.53, repro,
2005-05-29,-0.69, 0.27, 6.28, 2.09, 1.68, 7.52, repro,
2005-05-30,-0.81, -0.93, 3.02, 2.08, 1.67, 7.46, repro,
2005-05-31,-0.89, 0.83, 2.97, 2.06, 1.66, 7.43, repro,
2005-06-01,-1.01, -0.02, 4.69, 2.07, 1.62, 7.46, repro,
2005-06-02,-0.41, -0.23, 4.82, 2.06, 1.62, 7.45, repro,
2005-06-03,-1.22, 0.14, -1.05, 2.05, 1.61, 7.39, repro,
2005-06-04,-1.80, -0.26, 6.33, 2.06, 1.61, 7.38, repro,
2005-06-05,-2.76, 0.01, 3.81, 2.04, 1.61, 7.33, repro,
2005-06-06,-1.36, 0.52, 2.15, 2.06, 1.61, 7.42, repro,
2005-06-07,0.33, -0.94, 2.44, 2.06, 1.62, 7.49, repro,
2005-06-08,-1.11, -0.16, 6.56, 2.05, 1.62, 7.41, repro,
2005-06-09,-1.46, -0.16, 4.08, 2.07, 1.63, 7.44, repro,
2005-06-10,-2.27, -0.49, 1.49, 2.09, 1.67, 7.54, repro,
2005-06-11,-2.37, 0.64, 0.46, 2.09, 1.66, 7.50, repro,
2005-06-12,-1.29, 0.81, -0.59, 2.16, 1.71, 7.77, repro,
2005-06-13,-1.04, 0.15, 0.63, 2.16, 1.71, 7.74, repro,
2005-06-14,-1.43, -0.70, 4.51, 2.24, 1.79, 8.09, repro,
2005-10-28,1.07, 0.84, 5.04, 3.70, 2.88, 13.46, repro,
2005-10-29,0.80, 0.93, 7.45, 2.09, 1.66, 7.61, repro,
2005-10-30,0.21, 0.49, 0.06, 2.04, 1.60, 7.30, repro,
2005-10-31,1.06, 0.52, -6.57, 2.17, 1.71, 7.78, repro,
2005-11-01,0.96, 0.74, 0.91, 2.23, 1.82, 8.10, repro,
2005-11-02,0.12, 0.82, 10.94, 2.19, 1.80, 7.99, repro,
2005-11-03,1.55, -0.09, -1.09, 2.14, 1.74, 7.68, repro,
2005-11-04,0.88, 1.45, -0.03, 2.16, 1.78, 7.81, repro,
2005-11-05,0.03, 1.68, 4.10, 2.17, 1.80, 7.86, repro,
2005-11-06,-0.83, -0.41, 1.79, 2.11, 1.73, 7.68, repro,
2005-11-07,0.07, 0.04, -2.64, 2.16, 1.81, 7.91, repro,
2005-11-08,0.00, 0.14, -3.38, 2.12, 1.74, 7.74, repro,
2005-11-09,-0.27, 0.31, 2.85, 2.20, 1.84, 8.02, repro,
2005-11-10,0.21, 0.05, -2.13, 2.34, 1.84, 8.36, repro,
2005-11-11,2.15, -0.44, 5.50, 2.33, 1.86, 8.43, repro,
2005-11-12,-0.70, 1.16, -0.35, 2.03, 1.67, 7.37, repro,
2005-11-13,-1.07, 0.02, -2.52, 2.22, 1.80, 8.02, repro,
2005-11-14,-1.28, 0.67, -1.63, 2.08, 1.67, 7.45, repro,
2005-11-15,0.21, 1.63, -6.56, 2.05, 1.62, 7.37, repro,
2005-11-16,0.23, 0.04, -7.87, 2.07, 1.65, 7.48, repro,
2005-11-17,-0.87, 0.87, -3.74, 2.05, 1.60, 7.40, repro,
2005-11-18,-0.47, 1.07, -4.18, 2.04, 1.61, 7.39, repro,
2005-11-19,-0.24, 0.32, -4.75, 2.03, 1.61, 7.31, repro,
2005-11-20,-0.48, 0.60, -1.15, 2.06, 1.64, 7.42, repro,
2005-11-21,-0.01, -1.36, 2.42, 2.13, 1.69, 7.79, repro,
2005-11-22,-1.04, 0.28, -1.30, 2.11, 1.72, 7.77, repro,
2005-11-23,-0.69, 0.48, 5.26, 2.13, 1.68, 7.66, repro,
2005-11-24,-1.38, 0.40, 3.02, 2.04, 1.61, 7.36, repro,
2005-11-25,-1.32, -0.15, 12.84, 2.09, 1.67, 7.58, repro,
2005-11-26,0.28, -0.60, 3.07, 2.14, 1.74, 7.83, repro,
2005-11-27,-1.27, 0.23, 3.01, 2.11, 1.69, 7.69, repro,
2005-11-28,-0.21, -0.11, -5.68, 2.13, 1.69, 7.71, repro,
2005-11-29,0.16, 0.34, 0.16, 2.12, 1.69, 7.70, repro,
2005-11-30,0.12, 0.17, -4.10, 2.07, 1.67, 7.51, repro,
2005-12-01,-3.49, 0.02, -2.72, 2.05, 1.64, 7.41, repro,
2005-12-02,-3.38, -4.33, -7.74, 2.07, 1.65, 7.45, repro,
2005-12-03,0.55, 0.40, -7.39, 2.06, 1.64, 7.44, repro,
2005-12-04,-0.11, 0.72, -4.55, 2.06, 1.63, 7.37, repro,
2005-12-05,0.27, 0.82, -7.90, 2.04, 1.63, 7.32, repro,
2005-12-06,-0.77, 0.94, -6.02, 2.13, 1.72, 7.63, repro,
2005-12-07,-0.82, 0.00, -0.80, 2.08, 1.69, 7.58, repro,
2005-12-08,-0.35, 1.16, 1.05, 2.11, 1.70, 7.67, repro,
2005-12-09,0.02, 0.97, -2.69, 2.07, 1.65, 7.46, repro,
2005-12-10,-0.93, 0.82, -1.05, 2.06, 1.68, 7.51, repro,
2005-12-11,-0.73, 0.75, 3.51, 2.06, 1.67, 7.53, repro,
2005-12-12,-0.32, -0.43, -2.69, 2.03, 1.59, 7.27, repro,
2005-12-13,-0.79, 0.86, -3.34, 2.07, 1.64, 7.49, repro,
2005-12-14,-0.88, 0.00, -5.46, 2.06, 1.65, 7.46, repro,
2005-12-15,-0.68, 0.14, -4.07, 2.12, 1.70, 7.75, repro,
2005-12-16,-0.73, -0.37, -2.15, 2.06, 1.65, 7.48, repro,
2005-12-17,-1.65, -0.84, -4.31, 2.09, 1.68, 7.50, repro,
2005-12-18,-2.90, -2.48, -8.25, 2.12, 1.76, 7.62, repro,
2005-12-19,-0.03, -0.69, -3.30, 2.17, 1.79, 7.68, repro,
2005-12-20,0.39, 0.27, -3.04, 2.10, 1.75, 7.60, repro,
2005-12-21,-0.87, -0.27, 5.95, 2.06, 1.74, 7.47, repro,
2005-12-22,3.26, 1.15, -10.12, 2.09, 1.77, 7.61, repro,
2005-12-23,-0.21, 1.22, -1.83, 2.18, 1.81, 7.78, repro,
2005-12-24,-0.55, -0.30, -4.89, 2.31, 1.93, 8.31, repro,
2005-12-25,-0.13, -0.32, -9.95, 2.08, 1.71, 7.48, repro,
2005-12-26,-1.22, 0.31, 6.25, 2.11, 1.72, 7.56, repro,
2005-12-27,-1.87, -1.93, -2.92, 2.14, 1.73, 7.70, repro,
2005-12-28,1.20, 0.55, -2.20, 2.12, 1.72, 7.53, repro,
2005-12-29,-1.04, 0.55, -5.47, 2.22, 1.84, 8.05, repro,
2005-12-30,0.00, 1.00, 3.82, 2.20, 1.82, 7.86, repro,
2005-12-31,-3.29, -0.74, 7.07, 2.31, 1.87, 8.24, repro,
2006-01-01,-1.02, -0.74, 3.08, 2.16, 1.74, 7.73, repro,
2006-01-02,-0.93, -0.02, 4.36, 2.07, 1.66, 7.38, repro,
2006-01-03,-1.45, 2.26, -3.71, 2.31, 1.95, 8.21, repro,
2006-01-04,1.40, -0.34, -5.48, 2.20, 1.84, 7.73, repro,
2006-01-05,0.26, 1.81, -6.99, 2.15, 1.79, 7.72, repro,
2006-01-06,0.59, 0.39, -2.51, 2.24, 1.85, 8.13, repro,
2006-01-07,1.04, 0.03, 2.18, 2.17, 1.75, 7.82, repro,
2006-01-08,-0.77, 1.67, 0.55, 2.19, 1.84, 7.82, repro,
2006-01-09,0.02, 0.33, -0.38, 2.19, 1.81, 7.87, repro,
2006-01-10,0.04, 1.52, 1.59, 2.26, 1.90, 8.15, repro,
2006-01-11,1.33, -0.34, 0.56, 2.20, 1.83, 7.98, repro,
2006-01-12,0.25, 0.06, 2.29, 2.09, 1.71, 7.45, repro,
2006-01-13,-1.03, 1.76, 6.88, 2.30, 2.01, 8.59, repro,
2006-01-14,-3.84, 0.49, 9.49, 2.09, 1.66, 7.48, repro,
2006-01-15,0.00, 1.18, 1.61, 2.07, 1.65, 7.37, repro,
2006-01-16,-0.34, 0.93, 4.25, 2.20, 1.85, 7.82, repro,
2006-01-17,0.57, 1.92, 1.39, 2.19, 1.80, 7.70, repro,
2006-01-18,0.45, -0.32, 14.75, 2.07, 1.65, 7.35, repro,
2006-01-19,-1.21, 1.10, -2.23, 2.12, 1.65, 7.56, repro,
2006-01-20,-0.30, 0.88, -4.92, 2.14, 1.68, 7.69, repro,
2006-01-21,0.39, 1.15, 1.89, 2.11, 1.68, 7.49, repro,
2006-01-22,-0.62, 0.76, -2.14, 2.05, 1.61, 7.24, repro,
2006-01-23,-0.06, 1.30, 1.84, 2.05, 1.58, 7.15, repro,
2006-01-24,-0.10, 2.03, -2.70, 2.10, 1.64, 7.44, repro,
2006-01-25,-1.12, 0.56, 1.85, 1.99, 1.57, 7.11, repro,
2006-01-26,0.03, 0.92, -5.39, 2.00, 1.57, 7.17, repro,
2006-01-27,0.66, 0.54, -4.36, 2.01, 1.58, 7.20, repro,
2006-01-28,-0.73, 0.86, -5.10, 1.98, 1.56, 7.09, repro,
2006-01-29,-0.37, 0.91, -3.71, 2.00, 1.56, 7.13, repro,
2006-01-30,-0.61, 0.37, 3.06, 2.03, 1.56, 7.19, repro,
2006-01-31,0.46, -0.35, -2.45, 2.01, 1.57, 7.25, repro,
2006-02-01,-0.28, 0.82, -0.36, 2.02, 1.58, 7.26, repro,
2006-02-02,-0.46, -0.36, 4.39, 2.01, 1.56, 7.23, repro,
2006-02-03,-0.40, 0.93, -1.22, 2.01, 1.57, 7.23, repro,
2006-02-04,-0.43, 0.21, 0.49, 2.03, 1.56, 7.26, repro,
2006-02-05,-1.55, 0.46, 0.28, 2.02, 1.56, 7.22, repro,
2006-02-06,-1.37, 0.95, -4.27, 2.02, 1.56, 7.23, repro,
2006-02-07,-1.04, 0.43, -2.00, 2.00, 1.57, 7.25, repro,
2006-02-08,-0.92, 1.05, -6.49, 2.00, 1.56, 7.24, repro,
2006-02-09,-0.88, 0.88, -4.06, 2.08, 1.56, 7.44, repro,
2006-02-10,-1.58, 0.74, -3.75, 2.17, 1.59, 7.60, repro,
2006-02-11,-0.39, -0.33, -7.09, 2.03, 1.56, 7.31, repro,
2006-02-12,-0.62, 2.06, -11.79, 2.03, 1.56, 7.31, repro,
2006-02-13,-1.35, 1.53, -4.20, 2.02, 1.56, 7.25, repro,
2006-02-14,-0.66, -0.22, 4.52, 2.01, 1.54, 7.25, repro,
2006-02-15,-1.64, 0.87, 1.04, 2.01, 1.54, 7.27, repro,
2006-02-16,-0.69, 1.04, -0.75, 2.03, 1.56, 7.28, repro,
2006-02-17,-0.72, 0.29, -2.87, 2.03, 1.56, 7.30, repro,
2006-02-18,-2.71, 1.04, -3.15, 2.02, 1.56, 7.28, repro,
2006-02-19,-1.96, 0.11, 0.13, 2.01, 1.55, 7.22, repro,
2006-02-20,-0.29, 0.66, 6.35, 2.02, 1.55, 7.24, repro,
2006-02-21,-0.86, 0.94, 2.44, 2.02, 1.56, 7.28, repro,
2006-02-22,-0.86, 2.06, 6.09, 2.04, 1.58, 7.34, repro,
2006-02-23,-0.63, 0.91, 0.69, 2.02, 1.57, 7.33, repro,
2006-02-24,-1.25, 0.68, 1.78, 2.02, 1.56, 7.29, repro,
2006-02-25,-1.58, 1.49, -3.10, 2.01, 1.56, 7.22, repro,
2006-02-26,-1.55, 0.69, -1.55, 2.02, 1.57, 7.31, repro,
2006-02-27,-0.47, -1.66, 16.16, 2.04, 1.60, 7.39, repro,
2006-02-28,-1.36, -0.10, 6.50, 2.13, 1.66, 7.66, repro,
2006-03-01,-1.12, 1.73, 1.68, 2.13, 1.64, 7.59, repro,
2006-03-02,-1.42, 2.86, -1.71, 2.02, 1.57, 7.25, repro,
2006-03-03,-0.59, 1.31, 0.23, 2.09, 1.59, 7.55, repro,
2006-03-04,-0.80, 2.20, -3.71, 2.05, 1.62, 7.34, repro,
2006-03-05,-1.02, 0.86, 3.85, 2.02, 1.59, 7.33, repro,
2006-03-06,-2.44, 1.32, 2.98, 2.03, 1.59, 7.36, repro,
2006-03-07,0.48, 2.00, 0.20, 2.01, 1.58, 7.34, repro,
2006-03-08,-0.82, 2.17, -2.09, 1.98, 1.57, 7.21, repro,
2006-03-09,0.33, 1.34, 7.60, 2.00, 1.58, 7.26, repro,
2006-03-10,-1.20, 0.50, 11.47, 2.01, 1.58, 7.24, repro,
2006-03-11,-1.13, 1.74, 10.20, 2.06, 1.59, 7.40, repro,
2006-03-12,-2.12, 1.62, 3.64, 2.05, 1.58, 7.36, repro,
2006-03-13,-0.44, 1.86, -0.36, 2.04, 1.59, 7.38, repro,
2006-03-14,-0.12, 1.71, 6.39, 2.05, 1.59, 7.36, repro,
2006-03-15,-1.50, 2.05, 4.60, 2.05, 1.61, 7.44, repro,
2006-03-16,-1.99, 0.95, 2.62, 2.09, 1.63, 7.54, repro,
2006-03-17,-0.47, 2.56, -1.11, 2.11, 1.64, 7.58, repro,
2006-03-18,-0.57, 0.45, -5.67, 2.04, 1.60, 7.35, repro,
2006-03-19,-2.84, 0.72, -2.23, 2.02, 1.60, 7.32, repro,
2006-03-20,-0.86, -1.20, 5.67, 2.02, 1.62, 7.37, repro,
2006-03-21,-0.57, 1.28, 4.12, 2.02, 1.62, 7.38, repro,
2006-03-22,-1.10, -0.04, -5.81, 2.03, 1.62, 7.40, repro,
2006-03-23,-1.86, 0.20, -4.67, 2.11, 1.63, 7.51, repro,
2006-03-24,-1.09, -0.10, 2.32, 2.11, 1.64, 7.57, repro,
2006-03-25,-0.90, -2.08, 16.50, 2.11, 1.65, 7.65, repro,
2006-03-26,-1.08, 1.69, 4.53, 2.08, 1.66, 7.62, repro,
2006-03-27,-1.32, 0.74, 7.24, 2.08, 1.65, 7.55, repro,
2006-03-28,-2.84, -1.98, 4.97, 2.02, 1.62, 7.33, repro,
2006-03-29,-2.11, 0.83, 14.78, 1.97, 1.59, 7.25, repro,
2006-03-30,-1.27, 0.25, 10.91, 1.96, 1.59, 7.21, repro,
2006-03-31,-0.85, 0.24, 7.15, 1.97, 1.60, 7.28, repro,
2006-04-01,-1.48, -0.47, 7.49, 1.96, 1.61, 7.31, repro,
2006-04-02,-0.13, 0.77, 3.45, 1.96, 1.60, 7.24, repro,
2006-04-03,-1.29, 0.15, 13.12, 1.98, 1.59, 7.28, repro,
2006-04-04,-0.93, 0.10, 12.21, 1.99, 1.58, 7.25, repro,
2006-04-05,-2.04, -0.95, 6.59, 1.99, 1.63, 7.46, repro,
2006-04-06,-0.68, -0.05, 4.78, 2.00, 1.64, 7.49, repro,
2006-04-07,-1.96, 0.27, 4.24, 2.05, 1.65, 7.58, repro,
2006-04-08,-0.10, -0.16, 2.79, 2.10, 1.64, 7.63, repro,
2006-04-09,-0.83, -0.11, 3.91, 1.97, 1.59, 7.26, repro,
2006-04-10,-0.20, -0.93, 4.57, 1.98, 1.59, 7.27, repro,
2006-04-11,-0.93, -0.37, 12.40, 2.03, 1.63, 7.60, repro,
2006-04-12,-0.70, -1.32, 7.32, 2.02, 1.64, 7.58, repro,
2006-04-13,0.72, 0.72, 2.73, 1.97, 1.60, 7.30, repro,
2006-04-14,-1.09, -0.41, 8.92, 1.97, 1.60, 7.33, repro,
2006-04-15,0.73, 0.85, 18.80, 2.01, 1.61, 7.35, repro,
2006-04-16,-3.20, -0.36, 11.24, 1.97, 1.59, 7.30, repro,
2006-04-17,-0.98, 2.29, 10.79, 1.96, 1.60, 7.29, repro,
2006-04-18,-0.96, 0.06, 2.45, 1.96, 1.59, 7.28, repro,
2006-04-19,-1.22, 0.29, 4.74, 1.96, 1.60, 7.32, repro,
2006-04-20,-1.31, 0.76, 10.81, 2.02, 1.68, 7.68, repro,
2006-04-21,-1.76, -0.84, 8.90, 1.97, 1.58, 7.26, repro,
2006-04-22,-0.54, 0.93, 5.89, 1.99, 1.63, 7.42, repro,
2006-04-23,-1.07, 0.48, 2.11, 2.03, 1.71, 7.64, repro,
2006-04-24,-0.20, 0.97, 0.18, 2.04, 1.71, 7.63, repro,
2006-04-25,-0.39, -0.22, 4.15, 2.05, 1.71, 7.69, repro,
2006-04-26,-0.90, 0.04, 5.31, 1.99, 1.63, 7.41, repro,
2006-04-27,-1.47, 0.07, 2.44, 2.06, 1.64, 7.51, repro,
2006-04-28,-0.64, 0.60, 4.52, 2.01, 1.60, 7.35, repro,
2006-04-29,-0.65, 0.20, 2.03, 1.97, 1.59, 7.29, repro,
2006-04-30,-1.20, 0.33, 9.11, 1.97, 1.60, 7.32, repro,
2006-05-01,-0.32, -1.06, -3.91, 1.97, 1.59, 7.32, repro,
2006-05-02,-2.03, -0.64, 3.87, 1.96, 1.58, 7.24, repro,
2006-05-03,-1.09, -0.09, 4.82, 1.97, 1.58, 7.30, repro,
2006-05-04,-0.45, 0.61, 1.89, 1.97, 1.59, 7.29, repro,
2006-05-05,-1.52, 1.34, 2.68, 1.98, 1.59, 7.34, repro,
2006-05-06,-1.88, -0.27, 2.79, 1.97, 1.59, 7.33, repro,
2006-05-07,-0.52, -0.61, -2.74, 1.96, 1.58, 7.27, repro,
2006-05-08,-1.98, 0.88, 3.92, 1.96, 1.59, 7.30, repro,
2006-05-09,-2.02, 0.80, -2.01, 2.04, 1.61, 7.46, repro,
2006-05-10,-1.54, 0.87, -0.22, 1.98, 1.60, 7.38, repro,
2006-05-11,-1.63, 0.61, 1.20, 1.97, 1.60, 7.37, repro,
2006-05-12,-2.02, -0.18, 1.34, 1.96, 1.58, 7.29, repro,
2006-05-13,-1.55, 0.48, 2.71, 1.96, 1.59, 7.28, repro,
2006-05-14,-4.41, -0.13, 4.42, 1.97, 1.60, 7.38, repro,
2006-05-15,-6.57, -0.25, 11.83, 1.99, 1.59, 7.38, repro,
2006-05-16,-6.11, 2.22, 18.55, 2.01, 1.65, 7.51, repro,
2006-05-17,-0.98, 1.57, 16.60, 2.01, 1.64, 7.49, repro,
2006-05-18,-5.16, -0.61, 18.23, 2.00, 1.61, 7.42, repro,
2006-05-19,-7.19, 2.34, 14.05, 2.06, 1.62, 7.52, repro,
2006-05-20,-7.14, 6.45, 9.99, 2.08, 1.62, 7.58, repro,
2006-05-21,-3.18, 2.02, 14.49, 2.12, 1.65, 7.83, repro,
2006-05-22,-3.93, 1.20, 4.06, 2.08, 1.64, 7.63, repro,
2006-05-23,-3.00, 3.00, 2.86, 2.09, 1.65, 7.67, repro,
2006-05-24,-5.02, 3.49, 12.32, 2.12, 1.66, 7.70, repro,
2006-05-25,-1.37, 1.38, 7.24, 2.20, 1.74, 8.20, repro,
2006-05-26,-1.35, -3.89, 37.15, 2.25, 1.75, 8.47, repro,
2006-05-27,0.75, -1.29, 37.97, 2.15, 1.69, 7.97, repro,
2006-05-28,1.33, -0.49, 36.92, 2.15, 1.66, 7.87, repro,
2006-05-29,-3.30, 0.73, 53.47, 2.21, 1.70, 8.19, repro,
2006-05-30,-2.08, -1.00, 46.43, 2.20, 1.74, 8.19, repro,
2006-05-31,1.92, -5.47, 45.61, 2.17, 1.71, 8.07, repro,
2006-06-01,4.67, -4.96, 19.08, 2.10, 1.69, 7.85, repro,
2006-06-02,-1.42, -3.62, 31.34, 2.14, 1.72, 7.94, repro,
2006-06-03,-0.24, -4.03, 31.58, 2.15, 1.69, 7.92, repro,
2006-06-04,2.10, -3.74, 27.21, 2.13, 1.68, 7.83, repro,
2006-06-05,-0.72, -4.85, 26.21, 2.13, 1.68, 7.91, repro,
2006-06-06,-0.08, -4.79, 35.33, 2.12, 1.66, 7.77, repro,
2006-06-07,1.98, -4.48, 20.02, 2.13, 1.71, 7.97, repro,
2006-06-08,2.97, -5.17, 22.75, 2.04, 1.62, 7.49, repro,
2006-06-09,1.09, -3.73, 26.38, 2.07, 1.66, 7.65, repro,
2006-06-10,-0.39, -7.10, 30.17, 2.12, 1.72, 7.85, repro,
2006-06-11,2.14, -4.66, 21.57, 2.09, 1.67, 7.78, repro,
2006-06-12,3.76, -2.21, 33.94, 2.08, 1.66, 7.67, repro,
2006-06-13,4.06, -4.19, 27.86, 2.12, 1.67, 7.69, repro,
2006-06-14,3.11, -4.85, 39.48, 2.07, 1.64, 7.65, repro,
2006-06-15,3.50, -2.97, 28.18, 2.06, 1.62, 7.52, repro,
2006-06-16,5.25, -6.39, 22.78, 2.04, 1.63, 7.55, repro,
2006-06-17,3.33, -6.43, 32.23, 2.05, 1.62, 7.53, repro,
2006-06-18,1.24, -5.71, 43.53, 2.08, 1.68, 7.81, repro,
2006-06-19,0.24, -5.93, 30.56, 2.08, 1.67, 7.79, repro,
2006-06-20,0.72, -4.38, 25.81, 2.07, 1.66, 7.70, repro,
2006-06-21,0.44, -2.66, 18.06, 2.07, 1.67, 7.77, repro,
2006-06-22,-1.93, -3.22, 27.14, 2.06, 1.66, 7.71, repro,
2006-06-23,-0.38, -3.18, 19.88, 2.07, 1.66, 7.75, repro,
2006-06-24,0.22, -3.76, 15.07, 2.06, 1.64, 7.59, repro,
2006-06-25,1.78, -3.37, 6.99, 2.06, 1.66, 7.68, repro,
2006-06-26,1.97, -4.10, 8.00, 2.09, 1.68, 7.78, repro,
2006-06-27,0.11, -4.96, 9.51, 2.14, 1.75, 7.96, repro,
2006-06-28,0.49, -4.26, 16.45, 2.06, 1.67, 7.75, repro,
2006-06-29,0.20, -2.36, 13.33, 2.00, 1.63, 7.49, repro,
2006-06-30,-0.42, -3.84, 8.42, 2.02, 1.62, 7.55, repro,
2006-07-01,0.22, -1.04, 5.06, 2.03, 1.63, 7.60, repro,
2006-07-02,0.90, -1.84, 8.26, 2.09, 1.74, 7.93, repro,
2006-07-03,-0.23, -0.47, 7.17, 2.03, 1.63, 7.59, repro,
2006-07-04,-0.79, -1.50, 3.61, 2.04, 1.63, 7.62, repro,
2006-07-05,-1.41, -0.89, 2.57, 2.02, 1.61, 7.54, repro,
2006-07-06,-1.11, -0.37, -6.85, 2.04, 1.62, 7.60, repro,
2006-07-07,-1.27, 0.31, -1.78, 2.02, 1.62, 7.55, repro,
2006-07-08,-0.84, 0.45, 2.62, 2.03, 1.63, 7.61, repro,
2006-07-09,-1.15, 0.74, -0.95, 2.04, 1.63, 7.67, repro,
2006-07-10,-1.63, 0.80, 5.45, 2.04, 1.63, 7.62, repro,
2006-07-11,-0.67, 0.13, -0.06, 2.02, 1.61, 7.59, repro,
2006-07-12,-2.17, 1.02, -2.44, 2.03, 1.61, 7.55, repro,
2006-07-13,-0.38, -0.16, 5.72, 2.05, 1.63, 7.67, repro,
2006-07-14,-0.91, 0.22, 1.80, 2.05, 1.64, 7.72, repro,
2006-07-15,-0.63, 0.01, -1.71, 2.04, 1.64, 7.67, repro,
2006-07-16,-0.71, 1.23, 2.37, 2.03, 1.63, 7.64, repro,
2006-07-17,0.49, -0.54, -4.21, 2.05, 1.66, 7.84, repro,
2006-07-18,0.70, 1.19, 6.00, 1.98, 1.59, 7.35, repro,
2006-07-19,-1.07, 1.58, 6.12, 1.99, 1.60, 7.45, repro,
2006-07-20,0.64, -0.12, 0.29, 1.97, 1.59, 7.35, repro,
2006-07-21,0.08, 0.11, 0.38, 1.97, 1.59, 7.35, repro,
2006-07-22,-0.23, -0.19, 2.34, 1.97, 1.59, 7.31, repro,
2006-07-23,0.48, 0.58, -2.88, 2.00, 1.63, 7.55, repro,
2006-07-24,0.80, 0.95, 1.92, 2.00, 1.65, 7.50, repro,
2006-07-25,1.03, 0.89, 6.49, 1.97, 1.60, 7.36, repro,
2006-07-26,1.58, 0.80, 0.23, 2.02, 1.65, 7.53, repro,
2006-07-27,0.65, 0.87, -0.78, 1.97, 1.60, 7.34, repro,
2006-07-28,0.54, 0.22, -0.49, 1.96, 1.58, 7.25, repro,
2006-07-29,-0.78, -0.45, 2.98, 2.01, 1.64, 7.55, repro,
2006-07-30,0.66, 0.95, 4.29, 2.02, 1.66, 7.58, repro,
2006-07-31,0.22, 0.96, 2.90, 1.98, 1.61, 7.45, repro,
2006-08-01,0.91, 0.64, -0.41, 1.97, 1.59, 7.32, repro,
2006-08-02,0.69, 1.17, 0.07, 1.98, 1.65, 7.57, repro,
2006-08-03,-0.12, 2.27, 2.53, 1.99, 1.64, 7.57, repro,
2006-08-04,1.69, 0.56, -6.59, 2.07, 1.67, 7.79, repro,
2006-08-05,0.19, -0.12, 1.00, 2.06, 1.70, 7.89, repro,
2006-08-06,1.67, 0.51, -3.40, 2.00, 1.65, 7.62, repro,
2006-08-07,1.73, 0.32, -1.57, 2.00, 1.64, 7.61, repro,
2006-08-08,1.32, 0.96, -4.67, 2.00, 1.65, 7.47, repro,
2006-08-09,0.37, 1.04, -1.14, 2.03, 1.66, 7.61, repro,
2006-08-10,0.85, 0.28, -6.31, 1.99, 1.60, 7.43, repro,
2006-08-11,0.31, -0.06, 5.73, 1.99, 1.61, 7.43, repro,
2006-08-12,0.22, 0.36, -0.02, 1.97, 1.60, 7.35, repro,
2006-08-13,0.52, -0.27, 3.71, 1.99, 1.65, 7.45, repro,
2006-08-14,0.55, -0.18, 5.66, 2.00, 1.66, 7.51, repro,
2006-08-15,1.07, 0.31, 4.93, 2.10, 1.68, 7.77, repro,
2006-08-16,0.49, 0.52, 4.64, 1.98, 1.60, 7.41, repro,
2006-08-17,1.27, 0.58, 3.84, 2.09, 1.68, 7.69, repro,
2006-08-18,-0.56, 0.97, 0.00, 2.01, 1.69, 7.56, repro,
2006-08-19,0.89, 0.50, -3.09, 1.94, 1.58, 7.24, repro,
2006-08-20,0.68, 0.28, 2.59, 1.96, 1.60, 7.36, repro,
2006-08-21,1.44, 1.41, -0.09, 1.99, 1.63, 7.47, repro,
2006-08-22,0.08, 0.37, 5.15, 1.98, 1.63, 7.44, repro,
2006-08-23,-0.06, 0.87, 2.40, 1.96, 1.62, 7.35, repro,
2006-08-24,1.23, -0.05, 5.62, 1.96, 1.62, 7.37, repro,
2006-08-25,0.10, 0.85, 5.01, 2.01, 1.67, 7.70, repro,
2006-08-26,0.30, 0.84, 1.79, 2.04, 1.70, 7.78, repro,
2006-08-27,1.70, 0.67, -1.54, 2.04, 1.73, 7.85, repro,
2006-08-28,-0.04, 0.77, -2.24, 2.03, 1.71, 7.76, repro,
2006-08-29,1.37, 1.34, -2.93, 2.04, 1.71, 7.83, repro,
2006-08-30,1.34, 0.03, 0.81, 2.11, 1.73, 7.99, repro,
2006-08-31,-0.03, 0.90, -1.26, 2.04, 1.71, 7.79, repro,
2006-09-01,0.99, 1.34, -4.02, 2.11, 1.76, 8.06, repro,
2006-09-02,0.67, 0.83, -5.27, 2.04, 1.72, 7.83, repro,
2006-09-03,0.21, 0.73, -6.58, 2.03, 1.71, 7.77, repro,
2006-09-04,2.38, 2.20, -8.40, 2.10, 1.74, 7.96, repro,
2006-09-05,1.38, 1.14, -10.29, 2.11, 1.75, 8.00, repro,
2006-09-06,0.89, 1.96, -5.14, 2.05, 1.73, 7.85, repro,
2006-09-07,0.02, 1.28, 5.51, 2.08, 1.76, 8.00, repro,
2006-09-08,0.40, 0.78, -1.53, 2.07, 1.75, 7.97, repro,
2006-09-09,0.43, -0.31, 1.54, 2.01, 1.68, 7.56, repro,
2006-09-10,1.70, 0.67, -1.02, 2.01, 1.67, 7.52, repro,
2006-09-11,2.03, 0.32, -0.83, 2.01, 1.68, 7.59, repro,
2006-09-12,1.25, 0.78, 1.13, 2.02, 1.68, 7.62, repro,
2006-09-13,0.56, 1.16, 4.61, 2.00, 1.67, 7.56, repro,
2006-09-14,-0.70, 1.46, -0.44, 2.11, 1.76, 7.83, repro,
2006-09-15,1.68, -0.91, -0.03, 2.04, 1.65, 7.51, repro,
2006-09-16,1.28, 0.87, 5.77, 1.98, 1.64, 7.47, repro,
2006-09-17,0.75, 1.38, 4.97, 1.99, 1.64, 7.49, repro,
2006-09-18,-0.14, 0.57, 9.26, 1.98, 1.63, 7.43, repro,
2006-09-19,1.94, -0.40, 3.82, 1.99, 1.62, 7.42, repro,
2006-09-20,1.33, 0.19, -7.31, 1.98, 1.62, 7.37, repro,
2006-09-21,0.25, 1.28, 6.24, 2.01, 1.67, 7.55, repro,
2006-09-22,0.87, 0.75, 2.96, 2.13, 1.74, 7.96, repro,
2006-09-23,1.35, 0.31, -0.04, 2.07, 1.69, 7.68, repro,
2006-09-24,0.70, 0.27, 0.78, 2.14, 1.71, 7.95, repro,
2006-09-25,0.43, 0.87, 0.16, 2.10, 1.67, 7.74, repro,
2006-09-26,1.18, 0.62, 0.08, 2.11, 1.74, 7.84, repro,
2006-09-27,1.12, 0.40, -3.84, 2.09, 1.72, 7.82, repro,
2006-09-28,1.53, 0.76, 1.63, 2.12, 1.77, 7.86, repro,
2006-09-29,0.46, 0.94, 3.53, 2.07, 1.70, 7.71, repro,
2006-09-30,1.96, 0.01, 7.47, 2.04, 1.67, 7.67, repro,
2006-10-01,0.86, 0.74, 7.98, 2.03, 1.69, 7.62, repro,
2006-10-02,2.38, -0.73, 5.14, 2.07, 1.73, 7.71, repro,
2006-10-03,1.06, 0.19, 1.35, 2.16, 1.79, 8.03, repro,
2006-10-04,0.20, -0.23, 2.05, 2.04, 1.67, 7.64, repro,
2006-10-05,1.28, -0.18, 9.32, 2.02, 1.66, 7.65, repro,
2006-10-06,0.63, 0.27, -0.08, 2.05, 1.67, 7.75, repro,
2006-10-07,1.10, 0.08, -4.68, 2.08, 1.71, 7.84, repro,
2006-10-08,-0.46, -0.03, -2.66, 2.09, 1.72, 7.95, repro,
2006-10-09,0.92, -0.34, -1.49, 2.03, 1.68, 7.68, repro,
2006-10-10,-0.19, 0.39, -1.07, 2.03, 1.67, 7.66, repro,
2006-10-11,-0.00, 0.55, 4.16, 2.02, 1.67, 7.66, repro,
2006-10-12,0.43, 0.64, 5.46, 2.02, 1.65, 7.50, repro,
2006-10-13,-0.40, -0.26, 8.55, 2.01, 1.64, 7.54, repro,
2006-10-14,1.52, 0.54, 6.17, 1.98, 1.66, 7.61, repro,
2006-10-15,0.25, 0.36, 11.13, 1.99, 1.66, 7.61, repro,
2006-10-16,2.49, 2.13, 11.88, 2.03, 1.67, 7.72, repro,
2006-10-17,1.59, -0.72, 12.39, 2.07, 1.72, 7.89, repro,
2006-10-18,1.55, 1.99, 5.14, 2.02, 1.74, 7.78, repro,
2006-10-19,1.25, 1.26, 3.71, 2.16, 1.73, 8.24, repro,
2006-10-20,0.06, -0.14, 3.41, 2.28, 1.90, 9.17, repro,
2006-10-21,-0.52, 0.49, 6.90, 2.20, 1.82, 8.53, repro,
2006-10-22,-0.37, 0.14, 3.81, 2.01, 1.70, 7.73, repro,
2006-10-23,0.43, -0.43, -3.24, 2.05, 1.74, 7.94, repro,
2006-10-24,0.42, 0.32, 5.17, 2.19, 1.77, 8.36, repro,
2006-10-25,0.33, -0.08, 7.24, 2.21, 1.81, 8.55, repro,
2006-10-26,1.22, 1.16, 8.70, 2.01, 1.72, 7.79, repro,
2006-10-27,1.48, 0.96, -1.89, 2.01, 1.74, 7.78, repro,
2006-10-28,0.55, 0.29, 0.42, 2.17, 1.79, 8.35, repro,
2006-10-29,-0.09, 0.34, 4.40, 1.99, 1.67, 7.60, repro,
2006-10-30,-0.40, 1.19, 4.24, 1.94, 1.64, 7.46, repro,
2006-10-31,-0.25, 0.17, 7.75, 1.98, 1.66, 7.59, repro,
2006-11-01,0.83, 0.64, 3.37, 2.01, 1.71, 7.76, repro,
2006-11-02,3.72, 3.34, 4.00, 2.02, 1.71, 7.87, repro,
2006-11-03,2.13, 0.23, 8.13, 2.00, 1.70, 7.68, repro,
2006-11-04,1.26, 1.28, 1.31, 2.05, 1.72, 7.90, repro,
2006-11-05,-0.93, 1.19, 2.68, 2.12, 1.78, 8.20, repro,
2006-11-06,0.15, 0.36, 0.25, 1.94, 1.64, 7.46, repro,
2006-11-07,-0.08, 1.35, -0.27, 2.10, 1.79, 8.14, repro,
2006-11-08,1.99, -0.01, 9.10, 2.11, 1.78, 8.05, repro,
2006-11-09,1.44, -0.43, 0.92, 2.11, 1.80, 8.23, repro,
2006-11-10,-0.15, 0.58, 4.73, 2.01, 1.66, 7.68, repro,
2006-11-11,0.54, 0.52, 5.14, 2.06, 1.72, 7.93, repro,
2006-11-12,-1.93, -0.35, 4.84, 2.09, 1.77, 7.92, repro,
2006-11-13,-0.09, 0.83, 9.12, 2.06, 1.72, 7.74, repro,
2006-11-14,0.94, -1.19, 11.93, 1.97, 1.63, 7.47, repro,
2006-11-15,0.35, 0.02, -2.41, 1.94, 1.63, 7.39, repro,
2006-11-16,1.17, 0.52, 4.25, 1.95, 1.63, 7.41, repro,
2006-11-17,-0.62, 0.29, 4.50, 1.94, 1.62, 7.36, repro,
2006-11-18,-0.33, 0.16, -1.47, 2.01, 1.72, 7.53, repro,
2006-11-19,-0.17, 0.09, -3.69, 1.94, 1.62, 7.32, repro,
2006-11-20,0.30, 0.56, 0.34, 1.95, 1.63, 7.36, repro,
2006-11-21,-0.52, 0.16, 2.03, 1.94, 1.63, 7.41, repro,
2006-11-22,0.96, 0.02, 0.67, 1.95, 1.63, 7.40, repro,
2006-11-23,0.08, 0.47, -3.99, 1.97, 1.67, 7.51, repro,
2006-11-24,-0.03, -0.13, 3.01, 2.02, 1.70, 7.70, repro,
2006-11-25,-0.52, -0.41, 1.32, 1.96, 1.64, 7.40, repro,
2006-11-26,0.11, 0.86, 5.80, 1.98, 1.65, 7.47, repro,
2006-11-27,0.95, -1.39, 1.10, 1.99, 1.65, 7.52, repro,
2006-11-28,-0.57, 0.97, 3.58, 1.96, 1.64, 7.43, repro,
2006-11-29,-0.21, 1.14, 6.52, 1.94, 1.63, 7.34, repro,
2006-11-30,-0.28, 1.08, -0.52, 1.93, 1.62, 7.29, repro,
2006-12-01,-0.23, 0.38, -1.00, 1.95, 1.64, 7.37, repro,
2006-12-02,-0.61, 0.42, 0.29, 1.94, 1.65, 7.41, repro,
2006-12-03,-0.28, 1.33, -2.28, 1.96, 1.64, 7.41, repro,
2006-12-04,0.16, 0.34, -2.12, 2.00, 1.65, 7.48, repro,
2006-12-05,-0.48, 0.79, -0.80, 1.97, 1.69, 7.47, repro,
2006-12-06,0.50, 0.07, -1.47, 2.01, 1.78, 7.71, repro,
2006-12-07,0.55, 0.44, 0.45, 1.97, 1.72, 7.58, repro,